This is the latest recevied weather packets stored in our database for station/object W2JBO-5. If no packets are shown the sender has not sent any weather packets the latest 10 day(s).
| Time | Temp. | Humidity | Pressure | Rain* | Wind** | Luminosity | Snow |
|---|---|---|---|---|---|---|---|
| 1777913232 | 24.44° C | 47% | 1017.4 hPa | 0 mm | - | 792 W/m² | - |
| 1777912930 | 24.44° C | 51% | 1017.4 hPa | 0 mm | - | 812 W/m² | - |
| 1777912625 | 24.44° C | 46% | 1017.4 hPa | 0 mm | - | 789 W/m² | - |
| 1777912322 | 24.44° C | 49% | 1017.4 hPa | 0 mm | - | 782 W/m² | - |
| 1777912017 | 24.44° C | 49% | 1017.4 hPa | 0 mm | - | 810 W/m² | - |
| 1777911713 | 23.89° C | 48% | 1017.4 hPa | 0 mm | - | 825 W/m² | - |
| 1777911410 | 24.44° C | 48% | 1017.7 hPa | 0 mm | - | 815 W/m² | - |
| 1777911108 | 23.89° C | 52% | 1017.9 hPa | 0 mm | - | 825 W/m² | - |
| 1777910805 | 23.89° C | 50% | 1017.7 hPa | 0 mm | - | 838 W/m² | - |
| 1777910502 | 23.89° C | 46% | 1017.7 hPa | 0 mm | - | 845 W/m² | - |
| 1777910198 | 24.44° C | 47% | 1017.7 hPa | 0 mm | - | 868 W/m² | - |
| 1777909896 | 24.44° C | 49% | 1017.7 hPa | 0 mm | - | 886 W/m² | - |
| 1777909592 | 23.89° C | 47% | 1017.5 hPa | 0 mm | - | 893 W/m² | - |
| 1777909290 | 24.44° C | 46% | 1017.7 hPa | 0 mm | - | 892 W/m² | - |
| 1777908987 | 23.89° C | 52% | 1017.7 hPa | 0 mm | - | 836 W/m² | - |
| 1777908686 | 23.89° C | 53% | 1017.6 hPa | 0 mm | - | 813 W/m² | - |
| 1777908382 | 23.33° C | 56% | 1017.9 hPa | 0 mm | - | 806 W/m² | - |
| 1777908079 | 23.89° C | 54% | 1018.1 hPa | 0 mm | - | 802 W/m² | - |
| 1777907774 | 23.33° C | 59% | 1018.1 hPa | 0 mm | - | 782 W/m² | - |
| 1777907469 | 23.33° C | 60% | 1018 hPa | 0 mm | - | 765 W/m² | - |
| 1777907167 | 22.78° C | 60% | 1018 hPa | 0 mm | - | 716 W/m² | - |
| 1777906864 | 22.78° C | 60% | 1018 hPa | 0 mm | - | 702 W/m² | - |
| 1777906561 | 22.78° C | 60% | 1018 hPa | 0 mm | - | 685 W/m² | - |
| 1777906256 | 22.78° C | 59% | 1018 hPa | 0 mm | - | 692 W/m² | - |
| 1777905953 | 22.78° C | 64% | 1017.9 hPa | 0 mm | - | 658 W/m² | - |
* Rain latest hour (hover to see other rain measurements)
** Current wind speed in m/s (hover to see current wind gust speed)